GW5140 Weather Reports


Display with metric or nautical units.
time (UTC)temp
F
wind
direction
speed
MPH
gust
MPH
rain 1hr
in
rain 24hr
in
rain mn
in
humidity
%
barometer
mb
20260505050645 51 240 0.0 0.0 0.00 0.00 0.00 90 1012.6
20260505050143 51 202 0.0 0.0 0.00 0.00 0.00 90 1012.4
20260505041612 50 236 0.0 0.0 0.00 0.00 0.00 90 1012.3
20260505041110 50 241 0.0 0.0 0.00 0.00 0.00 90 1012.3
20260505040607 50 250 0.0 0.0 0.00 0.00 0.00 90 1012.2
20260505040104 50 243 0.0 0.0 0.00 0.00 0.00 90 1012.3
20260505035600 50 232 0.0 0.0 0.00 0.00 0.00 90 1012.4
20260505035057 50 233 0.0 0.0 0.00 0.00 0.00 90 1012.4
20260505034553 50 234 0.0 0.0 0.00 0.00 0.00 90 1012.3
20260505034050 50 230 0.0 0.0 0.00 0.00 0.00 89 1012.4
20260505033547 51 227 0.0 0.0 0.00 0.00 0.00 89 1012.2
20260505033045 51 228 0.0 0.0 0.00 0.00 0.00 89 1012.4
20260505032543 51 236 0.0 0.0 0.00 0.00 0.00 89 1012.5
20260505032039 51 231 0.0 0.0 0.00 0.00 0.00 89 1012.3
20260505031537 51 238 0.0 0.0 0.00 0.00 0.00 89 1012.4
20260505031033 51 241 0.0 0.0 0.00 0.00 0.00 89 1012.5
20260505030530 51 217 0.0 0.0 0.00 0.00 0.00 88 1012.5
20260505030026 51 207 0.0 0.0 0.00 0.00 0.00 88 1012.5
20260505025522 51 207 0.0 0.0 0.00 0.00 0.00 88 1012.4
20260505025021 52 207 0.0 0.0 0.00 0.00 0.00 87 1012.4
20260505024517 52 207 0.0 0.0 0.00 0.00 0.00 87 1012.4
20260505024015 52 207 0.0 0.0 0.00 0.00 0.00 87 1012.4
20260505023511 52 207 0.0 0.0 0.00 0.00 0.00 87 1012.6
20260505023009 52 205 0.0 0.0 0.00 0.00 0.00 86 1012.3
20260505022507 53 206 0.0 0.0 0.00 0.00 0.00 86 1012.5
20260505022004 53 205 0.0 0.0 0.00 0.00 0.00 86 1012.4
20260505021500 53 185 0.0 0.0 0.00 0.00 0.00 85 1012.4
20260505020955 53 185 0.0 0.0 0.00 0.00 0.00 85 1012.5
20260505020451 54 185 0.0 0.0 0.00 0.00 0.00 84 1012.4
20260505015948 54 215 0.0 0.0 0.00 0.00 0.00 83 1012.4
20260505015446 54 213 0.0 0.0 0.00 0.00 0.00 83 1012.4
20260505014942 55 235 0.0 0.0 0.00 0.00 0.00 82 1012.5
20260505014439 55 240 0.0 0.0 0.00 0.00 0.00 82 1012.4
20260505013937 56 234 0.0 0.0 0.00 0.00 0.00 81 1012.3
20260505013433 56 305 0.0 0.0 0.00 0.00 0.00 79 1012.4
20260505012931 56 149 0.0 0.0 0.00 0.00 0.00 79 1012.4
20260505012429 56 276 0.0 0.0 0.00 0.00 0.00 78 1012.3
20260505011925 57 208 0.0 0.0 0.00 0.00 0.00 78 1012.3
20260505011421 57 29 0.0 0.0 0.00 0.00 0.00 77 1012.4
20260505010918 58 20 0.0 0.0 0.00 0.00 0.00 76 1012.3
20260505010414 59 184 0.0 0.0 0.00 0.00 0.00 74 1012.5
20260505005910 60 338 0.0 0.0 0.00 0.00 0.00 74 1012.5
20260505005407 60 42 0.0 0.0 0.00 0.00 0.00 73 1012.4
20260505004905 61 14 1.0 1.0 0.00 0.00 0.00 71 1012.5
20260505004401 62 50 2.0 2.0 0.00 0.00 0.00 67 1012.4
20260505003858 64 191 0.0 2.0 0.00 0.00 0.00 66 1012.4
20260505003355 65 146 3.0 4.0 0.00 0.00 0.00 58 1012.4
20260505002851 66 95 0.0 0.0 0.00 0.00 0.00 57 1012.4
20260505002348 67 66 0.0 1.0 0.00 0.00 0.00 56 1012.4
20260505001847 67 4 1.0 1.0 0.00 0.00 0.00 53 1012.5
20260505001343 68 136 2.0 3.0 0.00 0.00 0.00 58 1012.2
20260505000841 68 64 1.0 2.0 0.00 0.00 0.00 53 1012.2
20260505000338 68 318 1.0 2.0 0.00 0.00 0.00 53 1012.1
20260504235835 69 127 0.0 4.0 0.00 0.00 0.00 52 1012.1
20260504235332 69 264 0.0 3.0 0.00 0.00 0.00 51 1012.2
20260504234828 69 91 4.0 4.0 0.00 0.00 0.00 52 1012.2
20260504234326 68 121 0.0 0.0 0.00 0.00 0.00 56 1011.9
20260504233822 68 193 2.0 4.0 0.00 0.00 0.00 53 1011.8
20260504233318 68 2 0.0 0.0 0.00 0.00 0.00 56 1012.2
20260504232815 69 191 0.0 1.0 0.00 0.00 0.00 52 1011.9
20260504232312 70 143 0.0 0.0 0.00 0.00 0.00 52 1012.1
20260504231809 70 98 4.0 4.0 0.00 0.00 0.00 50 1012.2
20260504231306 70 133 0.0 0.0 0.00 0.00 0.00 52 1012.1
20260504230801 71 189 2.0 2.0 0.00 0.00 0.00 49 1011.9
20260504230300 71 218 0.0 3.0 0.00 0.00 0.00 51 1012.3
20260504225758 71 192 0.0 1.0 0.00 0.00 0.00 48 1012.1
20260504225254 71 70 2.0 3.0 0.00 0.00 0.00 49 1011.9
20260504224751 71 288 4.0 6.0 0.00 0.00 0.00 48 1012.1
20260504224249 72 99 1.0 9.0 0.00 0.00 0.00 48 1012.1
20260504223745 71 184 2.0 8.0 0.00 0.00 0.00 50 1012.3
20260504223240 71 83 0.0 3.0 0.00 0.00 0.00 47 1012.1
20260504222738 71 127 1.0 3.0 0.00 0.00 0.00 47 1012.3
20260504222234 71 97 5.0 7.0 0.00 0.00 0.00 47 1012.2
20260504221732 71 98 2.0 3.0 0.00 0.00 0.00 48 1012.4
20260504221229 71 192 5.0 13.0 0.00 0.00 0.00 48 1012.5
20260504220725 71 236 2.0 3.0 0.00 0.00 0.00 48 1012.4
20260504220223 71 120 2.0 7.0 0.00 0.00 0.00 49 1012.4
20260504215720 71 131 5.0 8.0 0.00 0.00 0.00 49 1012.6
20260504215217 71 233 1.0 2.0 0.00 0.00 0.00 48 1012.4
20260504214712 71 187 1.0 7.0 0.00 0.00 0.00 48 1012.1
20260504214209 71 282 3.0 10.0 0.00 0.00 0.00 48 1012.1
20260504213706 72 35 2.0 8.0 0.00 0.00 0.00 46 1011.7
20260504213202 71 205 0.0 7.0 0.00 0.00 0.00 47 1011.7
20260504212659 72 58 2.0 7.0 0.00 0.00 0.00 46 1011.8
20260504212156 72 165 2.0 11.0 0.00 0.00 0.00 47 1011.7
20260504211653 72 139 5.0 6.0 0.00 0.00 0.00 49 1011.8
20260504211149 71 14 2.0 3.0 0.00 0.00 0.00 47 1011.9
20260504210647 71 304 3.0 4.0 0.00 0.00 0.00 49 1011.8
20260504210143 71 98 1.0 9.0 0.00 0.00 0.00 47 1011.8
20260504205641 71 109 7.0 8.0 0.00 0.00 0.00 46 1012.1
20260504205138 72 174 4.0 7.0 0.00 0.00 0.00 45 1011.9
20260504204637 73 130 10.0 13.0 0.00 0.00 0.00 46 1011.9
20260504204135 73 250 4.0 8.0 0.00 0.00 0.00 44 1011.7
20260504203633 74 145 5.0 7.0 0.00 0.00 0.00 44 1011.8
20260504203131 74 295 6.0 14.0 0.00 0.00 0.00 43 1011.8
20260504202631 74 157 3.0 13.0 0.00 0.00 0.00 43 1011.8
20260504202128 74 195 4.0 6.0 0.00 0.00 0.00 43 1011.5
20260504201625 73 203 2.0 3.0 0.00 0.00 0.00 47 1011.7
20260504201123 71 33 3.0 9.0 0.00 0.00 0.00 45 1011.8
20260504200620 71 83 0.0 7.0 0.00 0.00 0.00 47 1011.9
20260504200116 72 215 5.0 10.0 0.00 0.00 0.00 45 1012.1
20260504195612 71 165 4.0 10.0 0.00 0.00 0.00 46 1012.1
20260504195108 71 151 3.0 9.0 0.00 0.00 0.00 46 1012.2
20260504194605 72 241 5.0 7.0 0.00 0.00 0.00 47 1012.2
20260504194101 72 115 1.0 11.0 0.00 0.00 0.00 45 1012.3
20260504193558 73 15 4.0 14.0 0.00 0.00 0.00 47 1012.2
20260504193056 73 294 2.0 14.0 0.00 0.00 0.00 44 1012.5
20260504192554 72 141 6.0 8.0 0.00 0.00 0.00 47 1012.2
20260504192052 71 116 1.0 8.0 0.00 0.00 0.00 44 1012.4
20260504191550 72 143 9.0 10.0 0.00 0.00 0.00 45 1012.3
20260504191045 72 40 2.0 13.0 0.00 0.00 0.00 47 1012.3
20260504190542 73 56 2.0 3.0 0.00 0.00 0.00 44 1012.2
20260504190038 72 229 4.0 9.0 0.00 0.00 0.00 45 1012.1
20260504185536 71 83 4.0 9.0 0.00 0.00 0.00 46 1012.3
20260504185032 71 326 9.0 11.0 0.00 0.00 0.00 45 1012.7
20260504184527 71 201 4.0 8.0 0.00 0.00 0.00 48 1012.6
20260504184023 71 59 4.0 8.0 0.00 0.00 0.00 46 1012.8
20260504183520 71 257 5.0 11.0 0.00 0.00 0.00 47 1012.8
20260504183019 71 127 4.0 8.0 0.00 0.00 0.00 47 1012.7
20260504182515 71 12 3.0 9.0 0.00 0.00 0.00 47 1012.7
20260504182012 69 234 1.0 2.0 0.00 0.00 0.00 51 1012.8
20260504181509 70 246 4.0 7.0 0.00 0.00 0.00 49 1012.9
20260504181008 70 164 5.0 7.0 0.00 0.00 0.00 47 1013.0
20260504180506 70 351 2.0 4.0 0.00 0.00 0.00 48 1013.1
20260504180004 70 74 2.0 13.0 0.00 0.00 0.00 47 1013.1
20260504175501 70 118 7.0 11.0 0.00 0.00 0.00 49 1012.9
20260504174958 69 55 1.0 13.0 0.00 0.00 0.00 48 1013.4
20260504174456 70 43 3.0 7.0 0.00 0.00 0.00 48 1013.3
20260504173953 70 110 5.0 8.0 0.00 0.00 0.00 48 1013.0
20260504173449 70 158 2.0 11.0 0.00 0.00 0.00 50 1013.3
20260504172947 69 336 4.0 8.0 0.00 0.00 0.00 55 1013.1
20260504172443 68 160 3.0 3.0 0.00 0.00 0.00 52 1013.6
20260504171939 68 220 7.0 8.0 0.00 0.00 0.00 50 1013.5
20260504171437 68 108 11.0 14.0 0.00 0.00 0.00 50 1013.5
20260504170934 68 130 7.0 9.0 0.00 0.00 0.00 48 1013.4
20260504170430 67 348 2.0 6.0 0.00 0.00 0.00 53 1013.7
20260504160349 67 264 4.0 6.0 0.00 0.00 0.00 49 1014.6
20260504150813 65 131 0.0 9.0 0.00 0.00 0.00 46 1015.0
20260504150310 65 114 2.0 9.0 0.00 0.00 0.00 46 1015.6
20260504141240 62 100 3.0 14.0 0.00 0.00 0.00 50 1015.6
20260504140736 61 45 2.0 8.0 0.00 0.00 0.00 49 1015.6
20260504140232 61 252 10.0 13.0 0.00 0.00 0.00 51 1015.7
20260504130701 58 252 5.0 7.0 0.00 0.00 0.00 53 1015.6
20260504130157 58 199 3.0 10.0 0.00 0.00 0.00 52 1015.7
20260504120121 45 15 2.0 2.0 0.00 0.00 0.00 87 1015.8
20260504110549 42 112 0.0 0.0 0.00 0.00 0.00 90 1016.1
20260504100510 43 65 0.0 0.0 0.00 0.00 0.00 89 1016.3
20260504081903 44 275 0.0 1.0 0.00 0.00 0.00 84 1016.9
20260504081400 44 155 0.0 0.0 0.00 0.00 0.00 84 1016.9
20260504080856 44 136 0.0 0.0 0.00 0.00 0.00 83 1016.9
20260504080353 44 144 0.0 0.0 0.00 0.00 0.00 83 1017.1
20260504070320 44 132 0.0 0.0 0.00 0.00 0.00 82 1017.4
20260504060241 44 117 0.0 0.0 0.00 0.00 0.00 81 1017.7